OpenBCM V1.13 (Linux)

Packet Radio Mailbox

DB0FHN

[JN59NK Nuernberg]

 Login: GUEST





  
I0OJJ  > AMSAT    10.06.26 02:40l 333 Lines 15661 Bytes #999 (0) @ WW
BID : 271_IR0EQ
Read: OE5RCO DJ6UX GUEST
Subj: 2Line Orbital Elements
Path: DB0FHN<OE2XZR<OK1TOR<SR6DWH<SR1BSZ<EA2RCF<LU9DCE<VE3TOK<IR0AAB<I0OJJ<
      IR0EQ
Sent: 260610/0026z @:IR0EQ.ITA.EU [Rome] $:271_IR0EQ

>From i0ojj%ir0eq.ita.eu@i0ojj.ampr.org Wed Jun 10 02:27:29 2026
Received: from i0ojj.ampr.org by i0ojj.ampr.org (JNOS2.0q.1) with SMTP
	id AA17062284 ; Wed, 10 Jun 2026 02:27:29 +0200
Message-Id: <271_IR0EQ@i0ojj.bbs>
>From: i0ojj@ir0eq.ita.eu
X-JNOS-User-Port: Telnet   (i0ojj @ 44.27.18.9)  ->   Sending message

>From i0ojj@rgate.ampr.org Wed Jun 10 02:26:29 2026
Received: from rgate.ampr.org by rgate.ampr.org (JNOS2.0q.1) with SMTP
	id AA2845 ; Wed, 10 Jun 2026 02:26:29 +0200
Received: by rgate.ampr.org with SMTP
	id AA2842 ; Wed, 10 Jun 2026 02:25:53 +0200
Message-Id: <2843@rgate.ampr.org>
>From: i0ojj@rgate.ampr.org

SB KEPS @ AMSAT  $ORB26161.1
2Line Orbital Elements 26161.AMSAT

QST de W1STR

AMSAT Orbital Elements for Amateur Satellites in TLE Format
>From Orbital Analysis Office
New England Sci-Tech STEM Education Center
Natick MA June 10, 2026
To all radio amateurs


These element sets describe the orbits of various satellites 
in use by the amateur radio community. For details see:
www.amsat.org/keplerian-elements-formats/

A daily update of element sets is available at:
www.amsat.org/tle/daily-bulletin.txt
or without bulletin text:
www.amsat.org/tle/dailytle.txt


AO-07
1 07530U 74089B   26160.31226999 -.00000035  00000-0  69227-4 0  9998
2 07530 101.9901 173.4766 0012488 144.7701 229.1729 12.53697932359533
UO-11
1 14781U 84021B   26160.43538020  .00001122  00000-0  11981-3 0  9995
2 14781  97.8054 126.0969 0006913 198.6022 161.4945 14.90763984255975
LO-19
1 20442U 90005G   26160.50739886  .00000107  00000-0  54932-4 0  9992
2 20442  98.8852 182.1012 0010721 224.9384 135.0932 14.34120851901295
AO-27
1 22825U 93061C   26160.44809160  .00000080  00000-0  47247-4 0  9991
2 22825  98.6881 227.8641 0009417 119.8201 240.3919 14.30940206705890
FO-29
1 24278U 96046B   26160.54794969 -.00000003  00000-0  29285-4 0  9990
2 24278  98.5247  10.4666 0350784 116.2031 247.5618 13.53273773472135
GO-32
1 25397U 98043D   26160.47814272  .00000062  00000-0  47013-4 0  9997
2 25397  99.0065 153.0425 0000613 183.0488 177.0687 14.24426925450238
ISS
1 25544U 98067A   26160.51346515  .00007341  00000-0  13794-3 0  9997
2 25544  51.6332 338.0748 0006877 150.8507 209.2867 15.49683556570568
NO-44
1 26931U 01043C   26160.54616119  .00000088  00000-0  63924-4 0  9991
2 26931  67.0511 264.0346 0006107 264.2446  95.7959 14.31953409289350
SO-50
1 27607U 02058C   26160.33310560  .00000929  00000-0  12688-3 0  9991
2 27607  64.5504 153.2855 0075434 263.9300  95.3207 14.83029515263299
CO-55
1 27844U 03031E   26160.52062595  .00000275  00000-0  13789-3 0  9996
2 27844  98.6735 169.1759 0009021 200.7824 159.2990 14.24331052190581
RS-22
1 27939U 03042A   26160.61180500  .00000462  00000-0  79517-4 0  9990
2 27939  98.3474 344.7569 0010158 296.8131 152.9400 14.73452857214431
CO-65
1 32785U 08021C   26160.55888833  .00005244  00000-0  33207-3 0  9992
2 32785  97.8272 141.8191 0010343  61.2835 298.9432 15.09380243984040
CO-66
1 32791U 08021J   26160.23552937  .00016060  00000-0  51422-3 0  9994
2 32791  97.7519 157.7552 0002294  29.0945 331.0423 15.32477826986071
RS-30
1 32953U 08025A   26160.61400412  .00000056  00000-0  33418-3 0  9993
2 32953  82.5049   0.1521 0019191 330.9888  29.0124 12.43179037818755
SRMSAT
1 37841U 11058D   26160.53493752  .00000362  00000-0  52397-4 0  9992
2 37841  19.9710 105.7844 0011936 119.8301  40.8059 14.11573956756730
ZACUBE-1
1 39417U 13066B   26160.47518227  .00003043  00000-0  23849-3 0  9990
2 39417  97.8090 122.7702 0040069 274.7996  84.8653 15.01140367679579
Delfi-N3xt
1 39428U 13066N   26160.34717791  .00004041  00000-0  35599-3 0  9999
2 39428  97.8344  80.6664 0072933 232.1741 127.2863 14.95009222673455
GOMX-1
1 39430U 13066Q   26160.62751692  .00001871  00000-0  28490-3 0  9991
2 39430  97.6494   1.5673 0130146 101.5421 260.0431 14.69431873668801
LO-74
1 39440U 13066AA  26160.42661912  .00003357  00000-0  31222-3 0  9993
2 39440  97.8902 109.3723 0059152  54.2261 306.4438 14.93700353675836
AO-73
1 39444U 13066AE  26160.43303962  .00004901  00000-0  30669-3 0  9996
2 39444  97.8268 131.7174 0034858 227.8994 131.9269 15.09396559678496
DTUSAT-2
1 40030U 14033W   26160.24594617  .00005707  00000-0  31024-3 0  9993
2 40030  98.0866 157.4695 0006102 258.5460 101.5086 15.14916834651489
LILACSAT-2
1 40908U 15049K   26160.59637230  .00016137  00000-0  27744-3 0  9995
2 40908  97.4659 197.1503 0005255 281.9066  78.1597 15.51193031594574
Horyu-4
1 41340U 16012D   26160.29259375  .00328479  00000-0  10049-2 0  9998
2 41340  30.9844 136.7554 0003255 219.0732 140.9694 15.90004490569557
Lapan A3
1 41603U 16040E   26160.61978197  .00003046  00000-0  97554-4 0  9995
2 41603  97.1486 157.0144 0011685  50.3382 309.8890 15.33056388553658
CAS-2T
1 41847U 16066G   26160.48328973  .00001622  00000-0  23478-3 0  9990
2 41847  98.3822 236.3075 0342511 152.7905 209.1703 14.44668740503687
TechnoSat
1 42829U 17042E   26160.40344424  .00002660  00000-0  19145-3 0  9996
2 42829  97.4264 318.3590 0018831 118.8363 241.4757 15.04906105485535
AO-91
1 43017U 17073E   26159.34389375  .00007664  00000-0  33533-3 0  9991
2 43017  97.4721  26.7398 0150896 359.9259   0.1924 15.12571253464050
S-Net D
1 43186U 18014G   26160.47865342  .00005051  00000-0  26172-3 0  9992
2 43186  97.5368  65.3172 0009590  53.7258 306.4860 15.16600051457591
S-Net B
1 43187U 18014H   26160.48995597  .00004950  00000-0  25677-3 0  9996
2 43187  97.5374  65.3149 0010112  48.9883 311.2223 15.16569498457591
S-Net A
1 43188U 18014J   26160.47757199  .00004925  00000-0  25521-3 0  9990
2 43188  97.5383  65.5098 0010042  49.7966 310.4145 15.16607695457596
S-Net C
1 43189U 18014K   26160.55977318  .00004948  00000-0  25667-3 0  9993
2 43189  97.5401  65.6649 0011226  42.0407 318.1685 15.16562082456157
Ten-Koh
1 43677U 18084G   26160.53379912  .00002206  00000-0  16911-3 0  9993
2 43677  98.0784 352.5748 0010711 137.9783 222.2265 15.02911930415010
PO-101
1 43678U 18084H   26160.63406906  .00002367  00000-0  19325-3 0  9999
2 43678  98.1174 356.5150 0012076 194.9472 165.1395 15.00416382415085
QO-100
1 43700U 18090A   26160.20434110  .00000161  00000-0  00000+0 0  9999
2 43700   0.0163 288.9745 0001916 188.7115 239.2727  1.00273583 27591
MinXSS-2
1 43758U 18099A   26160.45738337  .00031773  00000-0  64261-3 0  9992
2 43758  97.4537 236.5186 0006158 288.0578  72.0000 15.46382117412939
AO-95
1 43770U 18099N   26160.08109071  .00008954  00000-0  34498-3 0  9996
2 43770  97.4389 220.3580 0008826  27.1898 332.9801 15.26538897411985
SNUSat 2
1 43782U 18099AA  26160.11399540  .00006416  00000-0  28610-3 0  9995
2 43782  97.4065 213.6222 0009140 331.4678  28.6057 15.21715725411809
SnugLite
1 43784U 18099AC  26160.41162674  .00010307  00000-0  39143-3 0  9993
2 43784  97.3876 214.7689 0001684 347.9210  12.1988 15.27007882412130
ITASat 1
1 43786U 18099AE  26160.11674282  .00005227  00000-0  25280-3 0  9997
2 43786  97.4032 211.7901 0012984  28.2656 331.9281 15.18954369411687
EAGLET 1
1 43790U 18099AJ  26160.38062145  .00003091  00000-0  17910-3 0  9998
2 43790  97.4235 210.2561 0011475  21.4303 338.7406 15.12880219411153
ESEO
1 43792U 18099AL  26160.33085981  .00001679  00000-0  12484-3 0  9999
2 43792  97.3965 198.0553 0012135   6.6996 353.4391 15.04216082410625
JO-97
1 43803U 18099AX  26160.13509799  .00014955  00000-0  46531-3 0  9999
2 43803  97.4132 222.9432 0004209 303.3283  56.7556 15.33397143412399
Suomi 100
1 43804U 18099AY  26160.08758942  .00009244  00000-0  33836-3 0  9999
2 43804  97.4188 220.5119 0008531 313.2979  46.7548 15.28231571412184
ISAT
1 43879U 18111D   26160.55157001  .00084865  00000-0  89616-3 0  9996
2 43879  97.5883  95.1924 0001756  51.2917 308.8498 15.63934099409975
UWE-4
1 43880U 18111E   26159.73543038  .00034399  00000-0  71406-3 0  9990
2 43880  97.5854  87.7396 0007085  15.0599 345.0859 15.45597673409472
Sparrow
1 43881U 18111F   26160.37167875  .00135823  00000-0  10182-2 0  9991
2 43881  97.6115 100.4818 0004709 100.0969 260.0825 15.72205314410145
Prox-1
1 44339U 19036A   26160.35846098  .00011160  00000-0  10885-2 0  9993
2 44339  23.9928 166.5423 0005371 302.8767  57.1216 14.90423822372306
Taurus 1
1 44530U 19059C   26160.56189622  .00005638  00000-0  90586-3 0  9997
2 44530  98.6415 324.9178 0007718 343.2500  16.8449 14.72018496357521
TO-108
1 44881U 19093C   26160.64033169  .00001364  00000-0  15987-3 0  9991
2 44881  97.7529 233.0564 0014976 109.0061 251.2779 14.86510564350295
RS-44
1 44909U 19096E   26160.49976325  .00000034  00000-0  88333-4 0  9997
2 44909  82.5217 344.8144 0217823 162.0929 198.8004 12.79748674301361
SALSAT
1 46495U 20068K   26160.49232390  .00007245  00000-0  25454-3 0  9992
2 46495  97.8855 163.0891 0008742 339.5990  20.4898 15.29688082314186
CSS (TIANHE-1)
1 48274U 21035A   26160.48989296  .00022144  00000-0  26420-3 0  9996
2 48274  41.4694   8.8345 0008444  15.7709 344.3391 15.60486295291962
CUTE
1 49263U 21088D   26160.20488512  .00130491  83754-5  42597-3 0  9998
2 49263  97.4195 258.7399 0008079 246.7432 113.2991 15.90636354261283
TeikyoSat 4
1 49396U 21102B   26160.03336917  .00002103  00000-0  13499-3 0  9999
2 49396  97.3672 189.8336 0011066 327.9148  32.1407 15.09479159251491
Z-Sat
1 49399U 21102E   26160.61856708  .00003487  00000-0  17328-3 0  9992
2 49399  97.3335 196.1713 0014785 274.4355  85.5190 15.18209436252296
KOSEN 1
1 49402U 21102H   26160.08027342  .00006184  00000-0  23761-3 0  9997
2 49402  97.3193 202.3955 0012433 230.9756 129.0377 15.26721904252784
HO-113
1 50466U 21131B   26160.62673997  .00000482  00000-0  16254-3 0  9998
2 50466  98.4971 253.0574 0005269 114.2262 245.9478 14.41351092234027
